[[{"header":{"parameterUnit":"m.s-1","parameterCategory":1,"la1":30.2991,"la2":30.254,"lo1":-89.0895,"lo2":-89.0444,"dy":0.0017,"dx":0.0017,"nx":28,"ny":28,"refTime":"2025-08-29T03:00:00:Z","depth":0,"parameterNumber":2,"parameterNumberName":"U-component_of_WINDS"},"data":[0,0,0,0,0,0,0,0,0,0,0,0,0,0,0,0,0,0,0,0,0,0,0,0,0,0,0,0,0,0,0,0,0,0,0,0,0,0,0,0,0,0,0,0,0,0,0,0,0,0,0,0,0,0,0,0,0,0,3.3424,3.3425,0,3.3529,3.3531,3.3532,3.349,3.3488,3.3485,3.3483,3.3596,3.3601,3.3607,0,0,0,0,0,0,0,0,0,0,0,0,0,3.3192,3.3197,3.3424,3.3425,3.3426,3.3529,3.3531,3.3532,3.349,3.3487,3.3484,3.3482,3.3594,3.3601,3.3607,0,0,0,0,0,0,0,0,0,0,0,0,0,3.3295,3.3198,3.3424,3.3418,3.3418,3.3529,3.3531,3.3533,3.3491,3.3487,3.3484,3.348,3.3592,3.36,3.3608,3.3732,0,0,3.3632,3.3636,0,0,0,0,0,0,0,0,3.3289,3.3304,3.3417,3.3418,3.3419,3.3493,3.3491,3.36,3.3492,3.3464,3.3483,3.3478,3.3565,3.3575,3.3603,3.3737,3.3742,3.3633,3.3638,3.3641,3.3644,0,0,0,0,0,0,0,3.3282,3.3299,3.3466,3.3419,3.342,3.3412,3.3423,3.3511,3.3534,3.3466,3.3463,3.3476,3.3565,3.3596,3.3606,3.3744,3.3633,3.364,3.3645,3.3648,3.3988,3.3992,0,0,0,0,0,0,3.3274,3.3293,3.3462,3.3469,3.3344,3.3419,3.3431,3.3473,3.3533,3.3538,3.3479,3.3474,3.3584,3.3596,3.3609,3.376,3.3641,3.3649,3.3653,3.3984,3.3989,3.3993,0,0,0,0,0,0,3.3269,3.329,3.3458,3.338,3.3401,3.3427,3.3475,3.3477,3.3507,3.3543,3.3547,3.3506,3.3581,3.3598,3.3702,3.3763,3.3652,3.366,3.3979,3.3985,3.3991,3.4061,0,0,0,0,0,0,3.3263,3.3288,3.3334,3.3382,3.3405,3.3547,3.3478,3.3482,3.3521,3.3515,3.3569,3.3575,3.358,3.369,3.371,3.3772,3.3666,3.3973,3.3981,3.3989,3.4054,3.4069,3.4083,0,0,0,0,0,3.3255,3.335,3.3336,3.3357,3.3463,3.3551,3.3564,3.3567,3.3526,3.3573,3.3596,3.3573,3.3753,3.3701,3.3723,3.3789,3.3969,3.3979,3.3988,3.4047,3.4066,3.4082,0,0,0,0,0,0,3.331,3.3356,3.3341,3.3454,3.3499,3.3543,3.3603,3.3587,3.3645,3.3637,3.3639,3.3652,3.3759,3.3784,3.3725,3.3913,3.3855,3.387,3.3893,3.3911,3.3925,3.3918,3.3673,0,0,0,0,0,3.3335,3.3401,3.3438,3.3535,3.3557,3.3577,3.3615,3.3613,3.366,3.3679,3.3709,3.3757,3.3825,3.3869,3.3933,3.4057,3.407,3.4113,3.4128,3.414,3.4152,3.4222,3.4242,3.4024,3.4024,3.4024,0,0,3.3388,3.3421,3.3463,3.3547,3.3581,3.3651,3.3593,3.3669,3.3722,3.3691,3.379,3.3815,3.3869,3.3984,3.4036,3.4008,3.4215,3.4152,3.4161,3.4167,3.4234,3.4255,3.4273,3.4031,3.403,3.4029,0,0,3.352,3.3551,3.3636,3.3671,3.3723,3.3736,3.3756,3.3804,3.3819,3.3918,3.3898,3.3962,3.4077,3.4117,3.4153,3.4303,3.4284,3.4324,3.44,3.4468,3.4485,3.45,3.4555,3.4575,3.4336,3.4336,3.4336,0,3.358,3.3683,3.3682,3.376,3.3799,3.3773,3.386,3.3895,3.3967,3.3995,3.3962,3.4109,3.4143,3.4268,3.4304,3.4333,3.4359,3.4317,3.4482,3.4497,3.4512,3.4564,3.4585,3.4341,3.434,3.434,3.4339,0,3.3755,3.3827,3.3889,3.3957,3.4003,3.4085,3.4099,3.4146,3.4141,3.4158,3.4261,3.4302,3.4374,3.4404,3.44,3.4529,3.4511,3.448,3.4422,3.4537,3.4587,3.4607,3.4347,3.4346,3.4344,3.4343,0,0,3.3924,3.3991,3.4015,3.4046,3.4103,3.4159,3.4242,3.4312,3.4353,3.4403,3.4474,3.4574,3.4547,3.4587,3.4587,3.4647,3.4766,3.461,3.4611,3.4638,3.4913,3.4936,3.496,3.4753,3.4757,3.476,3.4909,0,3.4062,3.4204,3.4207,3.4339,3.4407,3.4385,3.4457,3.4501,3.452,3.4582,3.4603,3.4674,3.4631,3.4656,3.4714,3.4739,3.4821,3.4728,3.4822,3.4825,3.4809,3.4985,3.501,3.5148,3.4928,3.4932,3.4934,0,3.4241,3.4297,3.4435,3.4484,3.4512,3.4577,3.4642,3.4701,3.4752,3.4761,3.4807,3.4799,3.4886,3.4825,3.4947,3.4883,3.4922,3.4941,3.4946,3.4956,3.4887,3.5001,3.5192,3.5213,3.4964,3.4962,3.496,0,3.4353,3.4462,3.4559,3.4587,3.4646,3.4692,3.4719,3.4766,3.4808,3.4866,3.4894,3.4962,3.5,3.5054,3.5066,3.502,3.5188,3.5127,3.52,3.52,3.5237,3.5235,3.5438,3.5261,3.526,3.526,3.5259,0,3.4507,3.4593,3.461,3.467,3.4767,3.4771,3.4867,3.4891,3.4933,3.4999,3.4985,3.5047,3.5059,3.5125,3.5135,3.5235,3.5252,3.5264,3.5266,3.5266,3.5264,3.5292,3.5283,3.5265,3.5264,3.5263,3.5262,0,3.4647,3.4662,3.4767,3.4814,3.4829,3.4898,3.4939,3.4998,3.5015,3.5099,3.512,3.5147,3.5225,3.5242,3.5334,3.5341,3.546,3.5452,3.5443,3.5442,3.5514,3.5508,3.5743,3.5775,3.5576,3.5578,3.5579,0,3.4745,3.481,3.4865,3.4907,3.4936,3.5005,3.5048,3.5055,3.5101,3.5165,3.5217,3.5292,3.5353,3.5478,3.5508,3.5579,3.5573,3.5651,3.5584,3.5583,3.5576,3.5572,3.558,3.5664,3.5666,3.5668,3.5669,0,3.4917,3.4922,3.4983,3.5049,3.5101,3.5153,3.5203,3.524,3.5254,3.5307,3.5385,3.5432,3.5526,3.5602,3.5674,3.5704,3.5691,3.569,3.5711,3.5712,3.5704,3.5711,3.5479,3.5685,3.5683,3.5682,3.5681,3.5681,3.504,3.5098,3.5146,3.5216,3.5254,3.5302,3.536,3.5384,3.5449,3.5525,3.5526,3.5612,3.5663,3.5758,3.5792,3.5861,3.5837,3.5867,3.5875,3.5883,3.589,3.5693,3.5874,3.5874,3.5874,3.5873,3.5873,0,3.5213,3.5243,3.5307,3.5377,3.5433,3.5414,3.5468,3.5517,3.5592,3.5641,3.5701,3.5792,3.5866,3.5902,3.5976,3.6025,3.6021,3.6044,3.6041,3.6049,3.5906,3.5881,3.6046,3.6046,3.6046,3.6046,3.6046,3.6046,3.5309,3.5407,3.5417,3.5535,3.5565,3.5647,3.5681,3.5725,3.5764,3.5866,3.5927,3.5949,3.5994,3.6071,3.6139,3.6148,3.6177,3.6204,3.621,3.6076,3.6059,3.6042,3.6018,3.621,3.621,3.6347,3.6348,3.6349]},{"header":{"parameterUnit":"m.s-1","parameterCategory":1,"la1":30.2991,"la2":30.254,"lo1":-89.0895,"lo2":-89.0444,"dy":0.0017,"dx":0.0017,"nx":28,"ny":28,"refTime":"2025-08-29T03:00:00:Z","depth":0,"parameterNumber":3,"parameterNumberName":"V-component_of_WINDS"},"data":[0,0,0,0,0,0,0,0,0,0,0,0,0,0,0,0,0,0,0,0,0,0,0,0,0,0,0,0,0,0,0,0,0,0,0,0,0,0,0,0,0,0,0,0,0,0,0,0,0,0,0,0,0,0,0,0,0,0,-2.6891,-2.6892,0,-2.6976,-2.6977,-2.6977,-2.7013,-2.7013,-2.7013,-2.7013,-2.7098,-2.71,-2.7103,0,0,0,0,0,0,0,0,0,0,0,0,0,-2.6762,-2.6764,-2.6891,-2.6892,-2.6893,-2.6975,-2.6977,-2.6978,-2.7013,-2.7013,-2.7013,-2.7013,-2.7097,-2.71,-2.7103,0,0,0,0,0,0,0,0,0,0,0,0,0,-2.683,-2.6765,-2.6891,-2.6921,-2.6925,-2.6975,-2.6977,-2.6978,-2.7013,-2.7013,-2.7013,-2.7013,-2.7096,-2.71,-2.7103,-2.713,0,0,-2.7114,-2.7116,0,0,0,0,0,0,0,0,-2.6826,-2.6834,-2.6916,-2.6919,-2.6923,-2.6984,-2.6962,-2.7029,-2.7014,-2.698,-2.7013,-2.7013,-2.706,-2.7067,-2.7083,-2.7134,-2.7138,-2.7115,-2.7117,-2.7118,-2.7119,0,0,0,0,0,0,0,-2.6821,-2.6831,-2.6925,-2.6917,-2.6921,-2.6931,-2.694,-2.6975,-2.702,-2.6983,-2.6985,-2.6995,-2.7062,-2.7079,-2.7085,-2.7139,-2.7115,-2.7118,-2.712,-2.7121,-2.7219,-2.722,0,0,0,0,0,0,-2.6811,-2.6827,-2.6922,-2.6927,-2.6873,-2.6933,-2.6944,-2.6964,-2.702,-2.7028,-2.6995,-2.6996,-2.7073,-2.7081,-2.7088,-2.7125,-2.7118,-2.7122,-2.7124,-2.7219,-2.7219,-2.722,0,0,0,0,0,0,-2.6808,-2.6819,-2.6918,-2.6878,-2.6891,-2.6936,-2.6959,-2.6966,-2.6984,-2.7029,-2.7037,-2.7004,-2.7073,-2.7083,-2.712,-2.7128,-2.7123,-2.7127,-2.7218,-2.7219,-2.7219,-2.7197,0,0,0,0,0,0,-2.6805,-2.6818,-2.6828,-2.6878,-2.6893,-2.6948,-2.6959,-2.6968,-2.699,-2.6992,-2.704,-2.7048,-2.7074,-2.7115,-2.7124,-2.7133,-2.7129,-2.7218,-2.7219,-2.7219,-2.7197,-2.7197,-2.7197,0,0,0,0,0,-2.68,-2.6818,-2.6829,-2.684,-2.6907,-2.6949,-2.6958,-2.6988,-2.699,-2.7001,-2.7031,-2.7046,-2.7126,-2.7118,-2.7129,-2.7139,-2.7217,-2.7218,-2.7219,-2.7198,-2.7197,-2.7197,0,0,0,0,0,0,-2.6767,-2.6825,-2.6837,-2.6872,-2.6905,-2.6955,-2.6969,-2.6986,-2.7019,-2.702,-2.7056,-2.7066,-2.71,-2.7124,-2.7114,-2.717,-2.7173,-2.7176,-2.7153,-2.7153,-2.7153,-2.7146,-2.7132,0,0,0,0,0,-2.6764,-2.6793,-2.6842,-2.6868,-2.6884,-2.6924,-2.6943,-2.6964,-2.7,-2.7014,-2.7046,-2.7081,-2.7114,-2.7135,-2.7167,-2.7201,-2.7213,-2.7214,-2.7214,-2.7213,-2.7216,-2.7238,-2.7239,-2.7223,-2.7223,-2.7223,0,0,-2.6757,-2.6792,-2.6808,-2.6862,-2.689,-2.6921,-2.6935,-2.6966,-2.6989,-2.7018,-2.7056,-2.7081,-2.7122,-2.7158,-2.7176,-2.7178,-2.7223,-2.7215,-2.7214,-2.7216,-2.7239,-2.724,-2.7242,-2.7224,-2.7224,-2.7223,0,0,-2.6761,-2.679,-2.6816,-2.6844,-2.6888,-2.6915,-2.6921,-2.6969,-2.6987,-2.7026,-2.7049,-2.7078,-2.7133,-2.7162,-2.7184,-2.7202,-2.7218,-2.7212,-2.721,-2.7231,-2.7233,-2.7234,-2.7242,-2.7244,-2.7214,-2.7214,-2.7214,0,-2.6747,-2.6793,-2.6826,-2.6857,-2.6881,-2.691,-2.6937,-2.6964,-2.7015,-2.7031,-2.7034,-2.7107,-2.7136,-2.7181,-2.7186,-2.7202,-2.7211,-2.7206,-2.723,-2.7231,-2.7233,-2.7241,-2.7244,-2.7213,-2.7213,-2.7213,-2.7214,0,-2.6775,-2.6807,-2.6823,-2.6874,-2.6899,-2.6927,-2.6966,-2.6988,-2.7007,-2.7034,-2.7074,-2.7111,-2.7153,-2.7165,-2.7183,-2.7213,-2.7214,-2.7223,-2.7227,-2.7233,-2.7242,-2.7245,-2.7212,-2.7212,-2.7213,-2.7213,0,0,-2.6758,-2.6829,-2.6834,-2.6859,-2.6911,-2.6936,-2.6967,-2.701,-2.7028,-2.7064,-2.7091,-2.714,-2.7149,-2.7174,-2.7196,-2.7215,-2.723,-2.7222,-2.7224,-2.7223,-2.7267,-2.726,-2.7263,-2.7241,-2.7241,-2.7242,-2.7264,0,-2.677,-2.6826,-2.6858,-2.6902,-2.6933,-2.6963,-2.6991,-2.7026,-2.7053,-2.7083,-2.7113,-2.7147,-2.7156,-2.7172,-2.7192,-2.7223,-2.7239,-2.7222,-2.7267,-2.7269,-2.7257,-2.7267,-2.726,-2.7278,-2.7267,-2.7268,-2.7268,0,-2.679,-2.6826,-2.6873,-2.6924,-2.6939,-2.6962,-2.7005,-2.7034,-2.7075,-2.7094,-2.7123,-2.7146,-2.7181,-2.7183,-2.7233,-2.7221,-2.7242,-2.7261,-2.7262,-2.7267,-2.7269,-2.7274,-2.7285,-2.7288,-2.7273,-2.7273,-2.7272,0,-2.6774,-2.6835,-2.6872,-2.6892,-2.6952,-2.6968,-2.6994,-2.7035,-2.706,-2.7097,-2.7114,-2.7154,-2.7177,-2.7208,-2.7242,-2.724,-2.7289,-2.7293,-2.7306,-2.7305,-2.7314,-2.7313,-2.733,-2.7327,-2.7327,-2.7327,-2.7327,0,-2.6784,-2.6812,-2.6866,-2.6889,-2.6922,-2.6959,-2.6991,-2.7019,-2.7056,-2.7086,-2.7114,-2.7141,-2.7184,-2.7217,-2.7244,-2.7282,-2.7291,-2.7308,-2.7315,-2.7306,-2.7304,-2.7319,-2.7319,-2.7328,-2.7327,-2.7327,-2.7327,0,-2.6771,-2.6809,-2.6851,-2.6906,-2.692,-2.6942,-2.6989,-2.7013,-2.7042,-2.7079,-2.709,-2.7136,-2.7176,-2.7214,-2.7266,-2.7285,-2.7324,-2.7332,-2.731,-2.7314,-2.7325,-2.7324,-2.7352,-2.7359,-2.7351,-2.7351,-2.7351,0,-2.6775,-2.6798,-2.6855,-2.6877,-2.6903,-2.6938,-2.6964,-2.7002,-2.7028,-2.7079,-2.7097,-2.7139,-2.7176,-2.7239,-2.7277,-2.7319,-2.7329,-2.7336,-2.7335,-2.7326,-2.733,-2.7329,-2.7332,-2.7335,-2.7335,-2.7335,-2.7335,0,-2.6778,-2.6796,-2.6832,-2.6876,-2.6906,-2.6942,-2.6978,-2.6995,-2.7041,-2.7068,-2.7111,-2.7139,-2.7195,-2.7238,-2.7284,-2.7311,-2.7331,-2.7336,-2.7341,-2.7332,-2.7319,-2.7327,-2.7309,-2.7334,-2.7334,-2.7335,-2.7335,-2.7335,-2.6775,-2.6797,-2.6842,-2.6882,-2.6914,-2.6948,-2.6974,-2.7008,-2.7044,-2.7093,-2.7114,-2.7157,-2.7201,-2.7266,-2.7293,-2.7328,-2.7332,-2.734,-2.7342,-2.7343,-2.7342,-2.7313,-2.7337,-2.7337,-2.7337,-2.7337,-2.7337,0,-2.678,-2.6811,-2.6848,-2.6899,-2.6931,-2.6948,-2.6991,-2.7016,-2.7054,-2.7094,-2.713,-2.718,-2.7222,-2.7265,-2.731,-2.733,-2.734,-2.734,-2.7339,-2.7346,-2.7335,-2.7326,-2.7331,-2.7331,-2.7331,-2.7331,-2.7331,-2.7331,-2.6787,-2.6826,-2.685,-2.6907,-2.6938,-2.6981,-2.7004,-2.7037,-2.7069,-2.7124,-2.7159,-2.7188,-2.7229,-2.7278,-2.7318,-2.733,-2.7345,-2.7343,-2.7357,-2.7346,-2.7346,-2.7346,-2.7339,-2.7346,-2.7346,-2.7366,-2.7366,-2.7366]}]]